Regional Weather Roundup
Issued by NWS

Home | Current Version | Previous Version | Graphics & Text | Print | Product List | Glossary On
Versions: 1 2 3 4 5 6 7 8 9 10 11 12 13 14 15 16 17 18 19 20 21 22 23 24 25 26 27 28 29 30 31 32 33 34 35 36 37 38 39 40 41 42 43 44 45 46
000
ASUS45 KBOU 190510
RWRCO

WEATHER ROUNDUP FOR COLORADO
NATIONAL WEATHER SERVICE DENVER/BOULDER CO
1100 PM MDT WED APR 18 2018

NOTE: "FAIR" INDICATES FEW OR NO CLOUDS BELOW 12000 FEET WITH NO
SIGNIFICANT WEATHER AND/OR OBSTRUCTIONS TO VISIBILITY.

COZ001>005-013-030-031-190600-
...NORTHWEST COLORADO...

CITY           SKY/WX    TMP DP  RH WIND       PRES   REMARKS
CRAIG          FAIR      34  22  61 CALM      30.12F
HAYDEN         FAIR      37  19  48 E8        30.15F
MEEKER         FAIR      35  22  58 NE5       30.12S WCI  31
RANGELY        FAIR      44  16  33 E8        30.09S
RABBIT EARS PA FAIR      28   9  43 SE8       30.24S WCI  20
STEAMBOAT SPGS FAIR      35  13  41 NW8       30.15F WCI  28
WALDEN         FAIR      27  10  50 SE5       30.21S WCI  21
$$

COZ006>008-011-190600-
...WEST CENTRAL VALLEYS...

CITY           SKY/WX    TMP DP  RH WIND       PRES   REMARKS
GRAND JUNCTION FAIR      41   8  25 E7        30.08S
MONTROSE       FAIR      39   9  29 SE8       30.14S
EAGLE          FAIR      36  17  46 E5        30.18R
RIFLE          FAIR      40  21  46 E6        30.11S
DELTA          FAIR      45   2  17 CALM      30.12R
NUCLA          FAIR      41  -2  16 E13       30.16S
$$

COZ017>023-064>068-190600-
...SOUTHWEST COLORADO...

CITY           SKY/WX    TMP DP  RH WIND       PRES   REMARKS
DURANGO        FAIR      36  -5  17 CALM      30.18S
CORTEZ         FAIR      35  -6  17 NE5       30.13S WCI  31
PAGOSA SPRINGS FAIR      31   6  34 CALM      30.24R
TELLURIDE      FAIR      44  -7  11 E3        30.24S
WOLF CREEK PAS FAIR      28  -8  20 S17       30.38R WCI  16
$$

COZ009-010-012-014-032>034-037-058>063-190600-
...CENTRAL COLORADO...

CITY           SKY/WX    TMP DP  RH WIND       PRES   REMARKS
ASPEN          FAIR      30  18  60 S6        30.16S WCI  24
BUENA VISTA    FAIR      36  -2  19 NE5       30.29S
COPPER MTN     NOT AVBL
BERTHOUD PASS  FAIR      16   5  62 SE33G46   30.29S WCI  -5
COTTONWOOD PAS FAIR      36  -2  20 SE15G24   30.31R
GUNNISON       FAIR      35   9  33 NW8       30.19S WCI  29
GRANBY         FAIR      32   9  38 N3        30.24S
KREMMLING      FAIR      37  18  44 CALM      30.21S
LEADVILLE      FAIR      30   5  34 S12       30.25S WCI  20
MONARCH PASS   FAIR      21  -4  33 E7        30.45S WCI  13
SALIDA         FAIR      41  -3  15 SE9       30.35R
SUNLIGHT       FAIR      25  10  54 SE8       30.28F WCI  16
WILKERSON PASS CLOUDY    23  -6  28 SW10G21   30.36S WCI  12
$$

COZ069>075-190600-
...SAN LUIS VALLEY/SANGRE DE CRISTO MOUNTAINS...

CITY           SKY/WX    TMP DP  RH WIND       PRES   REMARKS
ALAMOSA        FAIR      36   7  29 SE9       30.22S
DEL NORTE      FAIR      34   1  24 W10       30.24R WCI  26
LA VETA PASS   FAIR      28   0  29 N16       30.44S WCI  17
SAGUACHE       NOT AVBL
$$

COZ035-036-038>040-190600-
...NORTHERN COLORADO FRONT RANGE...

CITY           SKY/WX    TMP DP  RH WIND       PRES   REMARKS
DENVER INTL AP FAIR      31  13  47 SE12      30.26S WCI  22
AURORA         PTCLDY    35  13  40 SE12      30.27S WCI  27
FRONT RANGE AP FAIR      36  16  43 SE14      30.28S
ERIE MUNI ARPT FAIR      42  11  28 SE8       30.32S
BOULDER MUN AP FAIR      41  19  42 CALM      30.27R
CENTENNIAL     FAIR      37  13  37 S9        30.27R
BROOMFIELD     FAIR      43  12  28 E12       30.28R
FORT COLLINS   FAIR      35  16  45 CALM      30.29R
LONGMONT       FAIR      43  14  30 CALM      30.30R
$$

COZ041-046-047-076>085-087-088-190600-
...PIKES PEAK/PALMER DIVIDE AND SOUTHERN FOOTHILLS...

CITY           SKY/WX    TMP DP  RH WIND       PRES   REMARKS
COLO. SPRINGS  FAIR      40   4  22 SE3       30.30S
A. F. ACADEMY  FAIR      39   2  21 SE10      30.28S
SCHRIEVER AFB  NOT AVBL
CHEYENNE MTN   FAIR      41  -1  17 S16G24    30.24F
ELLICOTT         N/A    N/A N/A N/A E10       30.29R
FALCON         FAIR      33   4  30 SE7       30.31S WCI  27
FORT CARSON    FAIR      41   1  18 S8        30.28S
LIMON          FAIR      33  16  49 CALM      30.30R
MONUMENT HILL  FAIR      32   9  37 SE10      30.30S WCI  24
CANON CITY     FAIR      41   5  22 MISG      30.28S
WALSENBURG     NOT AVBL
TRINIDAD       FAIR      40   6  24 S12       30.28S
$$

COZ042>045-048>051-090-091-190600-
...NORTHEAST COLORADO...

CITY           SKY/WX    TMP DP  RH WIND       PRES   REMARKS
GREELEY ARPT   FAIR      35  15  44 E3        30.28R
AKRON          FAIR      40  20  44 SE5       30.28S
BURLINGTON     FAIR      31  18  58 CALM      30.29S
WRAY           FAIR      36  25  64 CALM      30.29S
YUMA           FAIR      32  21  64 CALM      30.28S
STERLING       FAIR      32  21  64 CALM      30.27S
HOLYOKE        FAIR      37  27  65 NE9       30.29S
FORT MORGAN    FAIR      36  14  40 E5        30.28S
$$

COZ086-089-092>099-190600-
...SOUTHEAST COLORADO...

CITY           SKY/WX    TMP DP  RH WIND       PRES   REMARKS
PUEBLO         FAIR      39   3  22 E8        30.27S
LA JUNTA       FAIR      40  11  30 E8        30.28R
LAMAR          FAIR      37  15  40 S3        30.28R
SPRINGFIELD      N/A     34   8  33 CALM      30.29S
$$




USA.gov is the U.S. government's official web portal to all federal, state and local government web resources and services.